Location: LDNL
(36.4545°S, 141.6685°E)
Time: 10:42:42
(UTC+11:00)

Envisat - Visible Passes

Search period start: 03 March 2024 00:00
Search period end: 13 March 2024 00:00
Orbit: 762 x 764 km, 98.3° (Epoch: 02 March)

Date Brightness Start Highest point End Pass type
(mag) Time Alt. Az. Time Alt. Az. Time Alt. Az.
03 Mar 5.1 03:58:44 21° S 03:58:44 21° S 04:00:29 10° S visible
04 Mar 5.6 03:21:08 16° SSE 03:21:08 16° SSE 03:22:33 10° SSE visible
04 Mar 5.3 05:01:19 12° SW 05:01:19 12° SW 05:01:49 10° SSW visible
05 Mar 5.2 04:23:43 18° SSW 04:23:43 18° SSW 04:24:57 10° SSW visible
06 Mar 5.4 03:46:08 18° S 03:46:08 18° S 03:47:27 10° S visible
07 Mar 5.9 03:08:32 12° SSE 03:08:32 12° SSE 03:09:12 10° SSE visible
07 Mar 5.4 04:48:43 12° SSW 04:48:43 12° SSW 04:49:09 10° SSW visible
08 Mar 5.4 04:11:07 15° S 04:11:07 15° S 04:12:02 10° S visible
09 Mar 5.7 03:33:32 14° SSE 03:33:32 14° SSE 03:34:20 10° S visible
10 Mar 5.5 04:36:07 11° SSW 04:36:07 11° SSW 04:36:22 10° SSW visible
11 Mar 5.6 03:58:31 13° S 03:58:31 13° S 03:59:03 10° S visible
12 Mar 6.0 03:20:55 11° SSE 03:20:55 11° SSE 03:21:06 10° SSE visible
